Fort Sill, OK

6:13 AM CDT on May 25, 2017 (GMT -0500)
Post Army Air Field

Weather History for KFSI - October, 2013

Change the Weather History Date:

Monday, October 14, 2013

  Actual Average Record
Temperature  
Mean Temperature 70 °F -  
Max Temperature 74 °F 79 °F 96 °F (2015)
Min Temperature 66 °F 53 °F 36 °F (1969)
Cooling Degree Days 6    
Growing Degree Days 20 (Base 50)    
Moisture  
Dew Point 68 °F    
Average Humidity 95    
Maximum Humidity 100    
Minimum Humidity 78    
Precipitation  
Precipitation 0.51 in - - ()
Sea Level Pressure  
Sea Level Pressure 29.98 in    
Wind  
Wind Speed 11 mph (SSE)    
Max Wind Speed 17 mph    
Max Gust Speed 23 mph    
Visibility 5 miles    
Events Rain    
Averages and records for this station are not official NWS values.
T = Trace of Precipitation, MM = Missing Value Source: NWS Daily Summary

Daily Weather History Graph

Daily Weather History Graph

Search for Another Location

Airport or City:

Trip Planner

Search our weather history database for the weather conditions in past years. The results will help you decide how hot, cold, wet, or windy it might be!

Date:

Astronomy

Oct. 14, 2013 Rise Set
Actual Time 7:38 AM CDT 6:59 PM CDT
Civil Twilight 7:13 AM CDT 7:25 PM CDT
Nautical Twilight 6:43 AM CDT 7:54 PM CDT
Astronomical Twilight 6:14 AM CDT 8:23 PM CDT
Moon 4:21 PM CDT (10/14) 3:07 AM CDT (10/14)
Length of Visible Light 12h 11m
Length of Day
11h 21m
Waxing Gibbous, 79% of the Moon is Illuminated
Oct 14
Waxing Gibbous
Oct 18
Full
Oct 26
Last Quarter
Nov 3
New
Nov 9
First Quarter

Hourly Weather History & Observations

Time (CDT) Temp. Dew Point Humidity Pressure Visibility Wind Dir Wind Speed Gust Speed Precip Events Conditions
12:58 AM 68.2 °F 65.5 °F 91% 30.10 in 2.0 mi SE 16.1 mph - N/A   Scattered Clouds
1:03 AM 68.0 °F 66.2 °F 94% 30.11 in 2.0 mi SE 15.0 mph - N/A   Mostly Cloudy
1:08 AM 68.0 °F 66.2 °F 94% 30.10 in 2.0 mi SE 13.8 mph - N/A   Mostly Cloudy
1:33 AM 68.0 °F 66.2 °F 94% 30.10 in 3.0 mi SSE 15.0 mph - N/A   Overcast
1:38 AM 68.0 °F 66.2 °F 94% 30.09 in 3.0 mi SE 15.0 mph - N/A   Overcast
1:58 AM 68.4 °F 66.0 °F 92% 30.09 in 3.0 mi SE 12.7 mph - N/A   Overcast
2:23 AM 68.0 °F 66.2 °F 94% 30.11 in 2.5 mi SE 9.2 mph - N/A   Overcast
2:38 AM 68.0 °F 66.2 °F 94% 30.10 in 3.0 mi SE 13.8 mph - N/A   Overcast
2:58 AM 68.4 °F 65.5 °F 90% 30.08 in 3.0 mi SE 10.4 mph - N/A   Overcast
3:23 AM 68.0 °F 66.2 °F 94% 30.08 in 3.0 mi SE 13.8 mph - N/A   Overcast
3:53 AM 68.0 °F 64.4 °F 88% 30.09 in 2.5 mi SSE 9.2 mph - N/A   Overcast
3:58 AM 68.4 °F 64.9 °F 89% 30.06 in 3.0 mi SE 11.5 mph - N/A   Overcast
4:58 AM 67.8 °F 64.6 °F 89% 30.06 in 3.0 mi SSE 8.1 mph - N/A   Overcast
5:03 AM 68.0 °F 64.4 °F 88% 30.08 in 3.0 mi SSE 10.4 mph - N/A   Overcast
5:51 AM 68.0 °F 64.4 °F 88% 30.07 in 3.0 mi SE 6.9 mph - N/A Rain Light Rain
5:58 AM 67.1 °F 64.8 °F 92% 30.06 in 3.0 mi ESE 6.9 mph - 0.00 in Rain Light Rain
6:01 AM 66.2 °F 64.4 °F 94% 30.06 in 3.0 mi ESE 8.1 mph - N/A   Overcast
6:38 AM 66.2 °F 64.4 °F 94% 30.05 in 3.0 mi SE 8.1 mph - N/A   Light Drizzle
6:44 AM 66.2 °F 64.4 °F 94% 30.05 in 3.0 mi SE 9.2 mph - N/A Rain Light Rain
6:49 AM 66.2 °F 64.4 °F 94% 30.05 in 2.5 mi SE 6.9 mph - N/A Rain Light Rain
6:50 AM 66.2 °F 64.4 °F 94% 30.05 in 2.5 mi SE 8.1 mph - N/A Rain Light Rain
6:55 AM 66.2 °F 64.4 °F 94% 30.05 in 2.0 mi SE 9.2 mph - N/A Rain Light Rain
6:58 AM 66.2 °F 64.4 °F 94% 30.04 in 2.0 mi SE 10.4 mph - 0.05 in Rain Light Rain
7:08 AM 66.2 °F 64.4 °F 94% 30.05 in 4.0 mi SSE 5.8 mph - N/A   Light Drizzle
7:12 AM 66.2 °F 66.2 °F 100% 30.05 in 4.0 mi SSE 4.6 mph - N/A   Overcast
7:18 AM 66.2 °F 66.2 °F 100% 30.05 in 4.0 mi SSE 5.8 mph - N/A   Light Drizzle
7:48 AM 66.2 °F 66.2 °F 100% 30.04 in 2.0 mi SSE 10.4 mph - N/A Rain Light Rain
7:53 AM 66.2 °F 66.2 °F 100% 30.04 in 1.5 mi SE 10.4 mph - N/A Rain Light Rain
7:58 AM 66.4 °F 65.7 °F 98% 30.03 in 1.2 mi SE 10.4 mph - 0.05 in Rain Heavy Rain
8:03 AM 66.2 °F 66.2 °F 100% 30.04 in 1.0 mi SE 8.1 mph - N/A Rain Light Rain
8:08 AM 66.2 °F 66.2 °F 100% 30.04 in 1.2 mi SSE 9.2 mph - N/A Rain Light Rain
8:13 AM 66.2 °F 66.2 °F 100% 30.04 in 1.0 mi SE 8.1 mph - N/A Rain Heavy Rain
8:23 AM 66.2 °F 66.2 °F 100% 30.04 in 1.5 mi South 6.9 mph - N/A Rain Light Rain
8:28 AM 66.2 °F 66.2 °F 100% 30.04 in 2.0 mi SSE 8.1 mph - N/A Rain Light Rain
8:43 AM 66.2 °F 66.2 °F 100% 30.04 in 3.0 mi SE 5.8 mph - N/A   Light Drizzle
8:50 AM 66.2 °F 66.2 °F 100% 30.04 in 5.0 mi SSE 5.8 mph - N/A   Overcast
8:55 AM 66.2 °F 66.2 °F 100% 30.04 in 5.0 mi SSE 6.9 mph - N/A   Overcast
8:56 AM 66.2 °F 66.2 °F 100% 30.04 in 5.0 mi SSE 8.1 mph - N/A Rain Light Rain
8:58 AM 66.2 °F 66.2 °F 100% 30.03 in 4.0 mi SSE 8.1 mph - 0.15 in Rain Light Rain
9:03 AM 66.2 °F 66.2 °F 100% 30.04 in 2.0 mi SSE 8.1 mph - N/A Rain Light Rain
9:08 AM 66.2 °F 66.2 °F 100% 30.04 in 1.5 mi SE 10.4 mph - N/A Rain Light Rain
9:18 AM 66.2 °F 66.2 °F 100% 30.04 in 2.0 mi SSE 11.5 mph - N/A Rain Light Rain
9:23 AM 66.2 °F 66.2 °F 100% 30.04 in 3.0 mi SSE 13.8 mph - N/A Rain Light Rain
9:28 AM 66.2 °F 66.2 °F 100% 30.03 in 3.0 mi SSE 13.8 mph - N/A Rain Light Rain
9:33 AM 66.2 °F 66.2 °F 100% 30.03 in 2.5 mi SSE 12.7 mph - N/A   Light Drizzle
9:42 AM 66.2 °F 66.2 °F 100% 30.03 in 3.0 mi SSE 12.7 mph - N/A   Overcast
9:58 AM 66.7 °F 66.7 °F 100% 30.01 in 5.0 mi SE 10.4 mph - 0.08 in   Overcast
10:30 AM 66.2 °F 66.2 °F 100% 30.01 in 6.0 mi SSE 12.7 mph - N/A Rain Light Rain
10:40 AM 66.2 °F 66.2 °F 100% 30.01 in 6.0 mi SSE 10.4 mph - N/A   Overcast
10:48 AM 68.0 °F 68.0 °F 100% 30.01 in 5.0 mi SSE 11.5 mph - N/A Rain Light Rain
10:53 AM 68.0 °F 68.0 °F 100% 30.01 in 1.8 mi SSE 9.2 mph - N/A Rain Heavy Rain
10:58 AM 68.0 °F 68.0 °F 100% 30.00 in 1.2 mi SSE 8.1 mph - 0.06 in Rain Light Rain
11:03 AM 68.0 °F 68.0 °F 100% 30.01 in 2.0 mi SSE 8.1 mph - N/A Rain Light Rain
11:13 AM 68.0 °F 68.0 °F 100% 30.00 in 1.2 mi SE 9.2 mph - N/A Rain Rain
11:18 AM 68.0 °F 68.0 °F 100% 30.00 in 1.5 mi SSE 11.5 mph - N/A Rain Light Rain
11:23 AM 68.0 °F 68.0 °F 100% 30.00 in 2.0 mi SSE 10.4 mph - N/A   Light Drizzle
11:38 AM 68.0 °F 68.0 °F 100% 29.99 in 3.0 mi SSE 13.8 mph - N/A   Light Drizzle
11:41 AM 68.0 °F 68.0 °F 100% 29.99 in 4.0 mi SSE 12.7 mph - N/A   Overcast
11:43 AM 68.0 °F 68.0 °F 100% 29.99 in 4.0 mi SSE 12.7 mph - N/A Rain Light Rain
11:58 AM 68.0 °F 68.0 °F 100% 29.98 in 3.0 mi SSE 11.5 mph - 0.11 in Rain Light Rain
12:08 PM 68.0 °F 68.0 °F 100% 29.99 in 7.0 mi South 10.4 mph - N/A Rain Light Rain
12:14 PM 68.0 °F 68.0 °F 100% 29.98 in 10.0 mi South 11.5 mph - N/A   Overcast
12:44 PM 69.8 °F 69.8 °F 100% 29.97 in 10.0 mi South 12.7 mph - N/A   Overcast
12:54 PM 69.8 °F 69.8 °F 100% 29.97 in 10.0 mi South 10.4 mph - N/A   Overcast
12:58 PM 70.3 °F 70.3 °F 100% 29.96 in 10.0 mi South 12.7 mph - 0.01 in   Overcast
1:03 PM 69.8 °F 69.8 °F 100% 29.97 in 10.0 mi South 12.7 mph - N/A   Overcast
1:23 PM 71.6 °F 71.6 °F 100% 29.95 in 10.0 mi South 10.4 mph - N/A   Overcast
1:44 PM 71.6 °F 69.8 °F 94% 29.93 in 10.0 mi South 15.0 mph 20.7 mph N/A   Overcast
1:54 PM 71.6 °F 69.8 °F 94% 29.92 in 10.0 mi South 12.7 mph - N/A   Overcast
1:58 PM 72.0 °F 70.0 °F 93% 29.91 in 10.0 mi South 12.7 mph - N/A   Overcast
2:03 PM 71.6 °F 69.8 °F 94% 29.91 in 10.0 mi South 12.7 mph - N/A   Overcast
2:18 PM 73.4 °F 69.8 °F 88% 29.91 in 10.0 mi South 15.0 mph - N/A   Overcast
2:28 PM 73.4 °F 69.8 °F 88% 29.90 in 10.0 mi South 12.7 mph 19.6 mph N/A   Overcast
2:38 PM 73.4 °F 69.8 °F 88% 29.90 in 10.0 mi South 16.1 mph 23.0 mph N/A   Overcast
2:48 PM 73.4 °F 68.0 °F 83% 29.90 in 10.0 mi South 10.4 mph - N/A   Overcast
2:58 PM 73.6 °F 69.1 °F 86% 29.87 in 10.0 mi South 17.3 mph - N/A   Overcast
3:23 PM 75.2 °F 69.8 °F 83% 29.88 in 10.0 mi South 15.0 mph - N/A   Overcast
3:28 PM 75.2 °F 68.0 °F 78% 29.88 in 10.0 mi South 16.1 mph - N/A   Overcast
3:38 PM 73.4 °F 68.0 °F 83% 29.89 in 10.0 mi SSW 15.0 mph - N/A   Overcast
3:48 PM 73.4 °F 69.8 °F 88% 29.88 in 10.0 mi South 13.8 mph - N/A   Overcast
3:53 PM 75.2 °F 69.8 °F 83% 29.88 in 10.0 mi South 12.7 mph - N/A   Overcast
3:58 PM 74.5 °F 69.4 °F 84% 29.85 in 10.0 mi South 13.8 mph - N/A   Overcast
4:28 PM 75.2 °F 69.8 °F 83% 29.88 in 8.0 mi South 10.4 mph - N/A   Overcast
4:43 PM 73.4 °F 69.8 °F 88% 29.87 in 7.0 mi South 12.7 mph - N/A   Overcast
4:58 PM 73.4 °F 69.4 °F 87% 29.85 in 6.0 mi SSE 13.8 mph - N/A   Overcast
5:28 PM 73.4 °F 69.8 °F 88% 29.86 in 5.0 mi South 13.8 mph - N/A   Haze
5:58 PM 73.4 °F 69.6 °F 88% 29.83 in 5.0 mi SSE 15.0 mph - N/A   Scattered Clouds
6:18 PM 73.4 °F 69.8 °F 88% 29.86 in 5.0 mi SSE 12.7 mph - N/A   Mostly Cloudy
6:28 PM 73.4 °F 69.8 °F 88% 29.86 in 4.0 mi South 12.7 mph - N/A   Mostly Cloudy
6:38 PM 73.4 °F 69.8 °F 88% 29.86 in 4.0 mi SSE 9.2 mph - N/A   Mostly Cloudy
6:58 PM 72.3 °F 70.0 °F 92% 29.84 in 5.0 mi SSE 9.2 mph - N/A   Overcast
7:38 PM 71.6 °F 69.8 °F 94% 29.87 in 5.0 mi SSE 9.2 mph - N/A   Overcast
7:58 PM 72.0 °F 70.5 °F 95% 29.86 in 6.0 mi SSE 9.2 mph - N/A   Overcast
8:00 PM 71.6 °F 69.8 °F 94% 29.87 in 6.0 mi SSE 9.2 mph - N/A   Overcast
8:20 PM 71.6 °F 69.8 °F 94% 29.87 in 6.0 mi SSE 11.5 mph - N/A   Overcast
8:25 PM 71.6 °F 69.8 °F 94% 29.87 in 6.0 mi SSE 12.7 mph - N/A   Mostly Cloudy
8:58 PM 71.8 °F 70.5 °F 96% 29.86 in 10.0 mi SSE 10.4 mph - N/A   Mostly Cloudy
9:08 PM 71.6 °F 71.6 °F 100% 29.89 in 10.0 mi SSE 9.2 mph - N/A   Mostly Cloudy
9:38 PM 71.6 °F 69.8 °F 94% 29.90 in 10.0 mi South 10.4 mph - N/A   Overcast
9:58 PM 71.2 °F 70.7 °F 98% 29.89 in 10.0 mi South 9.2 mph - N/A   Mostly Cloudy
10:03 PM 71.6 °F 71.6 °F 100% 29.90 in 10.0 mi South 11.5 mph - N/A   Mostly Cloudy
10:58 PM 70.9 °F 70.7 °F 99% 29.87 in 10.0 mi SSE 10.4 mph - N/A   Mostly Cloudy
11:03 PM 71.6 °F 69.8 °F 94% 29.89 in 10.0 mi South 12.7 mph - N/A   Mostly Cloudy
11:38 PM 71.6 °F 69.8 °F 94% 29.89 in 10.0 mi South 11.5 mph - N/A   Overcast
11:53 PM 71.6 °F 69.8 °F 94% 29.90 in 10.0 mi South 11.5 mph - N/A   Overcast
11:58 PM 70.7 °F 70.5 °F 99% 29.88 in 10.0 mi South 10.4 mph - N/A   Overcast